Location: Anankanda
(14.7841°N, 3.0348°W)
Time: 06:15:24
(UTC+00:00)

Cosmos 1937 Rocket - Pass Details

Date: 17 January 2021
Orbit: 747 x 780 km, 74.0° (Epoch: 07 March)

Event Time Altitude Azimuth Distance (km) Brightness Sun altitude
Rises 18:56:24 0° 172° (S) 3,215 6.9 -12.9°
Reaches altitude 10° 18:58:59 10° 162° (SSE) 2,296 6.0 -13.5°
Maximum altitude 19:03:34 31° 100° (E) 1,319 4.3 -14.6°
Enters shadow 19:05:52 22° 58° (ENE) 1,633 4.6 -15.1°
